Starlink 4023

operational
NORAD ID: 53135 Int'l Des: 2022-083 Owner: SPXS Country: US Constellation: starlink
LEOCIRCULAR

About Starlink 4023

Description loading...

Live Position

Loading 3D Globe...

Upcoming Passes

Altitude History

Altitude vs Time

uPlot chart will show altitude changes over time

Two-Line Element Set

1 53135U 22083D 25296.63131621 .00002179 00000-0 15495-3 0 9995
2 53135 53.2169 69.3989 0001017 99.8873 260.2234 15.08834595181515
Epoch: Oct 23, 2025 • Age: 23 hours

Current Status

Altitude 557.1 km
Velocity 7.58 km/s
Sub-Earth Point -48.71°S, 52°E
Launch Date Jul 17, 2022
Age 3.2 years
Type internet

Technical Details

Classification Payload
Mass 297.00 kg
Dry Mass 275.00 kg
Total Mass 297.00 kg
Length 0.20 m
Diameter 2.80 m
Span 9.00 m
Shape Box + pan
Manufacturer SPXS
Bus Type Starlink
Phase Status In Orbit
Owner/State SPXS/US

Large Constellations

Loading constellations...